Home   Weather   Garden Grove   Past weeks

Flag for USA Past Weather in Garden Grove, California, USA — Yesterday and Last 2 Weeks

Now
62 °F

Sunny.


Feels Like: 62 °F
Forecast: 45 / 71 °F
Wind: No wind

Location: Fullerton Municipal Airport

Current Time: Dec 4, 2016 at 10:36:38 am

Latest Report: Dec 4, 2016 at 9:53 am


Visibility: 10 mi

Pressure: 30.08 "Hg

Humidity: 38%

Dew Point: 36 °F

Location of Garden GroveLocation

Past Weather in Garden Grove — Graph

°F

Garden Grove Temperature Yesterday

Maximum temperature yesterday: 71 °F (at 1:53 pm)
Minimum temperature yesterday: 43 °F (at 6:53 am)
Average temperature yesterday: 56 °F

High & Low Weather Summary for the Past Weeks

 TemperatureHumidityPressure
High83 °F (Nov 24, 1:53 pm)93% (Nov 20, 6:00 pm)30.16 "Hg (Nov 20, 6:00 pm)
Low42 °F (Dec 4, 5:53 am)7% (Nov 24, 2:53 pm)29.82 "Hg (Nov 28, 3:53 pm)
Average58 °F57%30.01 "Hg
* Reported Nov 19 8:53 am — Dec 4 8:53 am, Garden Grove, Weather by CustomWeather, © 2016

Note: Actual official high and low records may vary slightly from our data, if they occured in-between our weather recording intervals... More about our weather records

Advertising

Garden Grove Weather History for the Previous 24 Hours

Scroll right to see more
 ConditionsComfort  
Time TempWeatherWind HumidityBarometerVisibility
8:53 am
Sun, Dec 4
58 °FSunny.3 mph39%30.08 "Hg10 mi
7:53 am49 °FSunny.No wind52%30.08 "Hg10 mi
6:53 am42 °FSunny.No wind55%30.07 "Hg10 mi
5:53 am42 °FClear.No wind57%30.06 "Hg10 mi
4:53 am43 °FClear.No wind58%30.05 "Hg10 mi
3:53 am44 °FClear.No wind53%30.04 "Hg10 mi
2:53 am45 °FClear.No wind51%30.05 "Hg10 mi
1:53 am45 °FClear.No wind49%30.05 "Hg10 mi
12:53 am46 °FClear.No wind50%30.05 "Hg10 mi
11:53 pm
Sat, Dec 3
47 °FClear.No wind42%30.06 "Hg10 mi
10:53 pm50 °FClear.No wind44%30.05 "Hg10 mi
9:53 pm50 °FClear.No wind46%30.05 "Hg10 mi
8:53 pm52 °FClear.No wind45%30.05 "Hg10 mi
7:53 pm55 °FClear.No wind42%30.04 "Hg10 mi
6:53 pm56 °FClear.3 mph42%30.04 "Hg10 mi
5:53 pm60 °FClear.No wind41%30.03 "Hg10 mi
4:53 pm65 °FClear.3 mph40%30.03 "Hg10 mi
3:53 pm69 °FPassing clouds.3 mph41%30.03 "Hg10 mi
2:53 pm71 °FSunny.3 mph41%30.03 "Hg10 mi
1:53 pm71 °FSunny.No wind39%30.03 "Hg10 mi
12:53 pm68 °FSunny.6 mph40%30.05 "Hg10 mi
11:53 am66 °FSunny.6 mph42%30.09 "Hg10 mi
10:53 am65 °FSunny.3 mph40%30.11 "Hg10 mi
Weather by CustomWeather, © 2016

See weather overviewHow to use our weather pages